{"data":{"norad_id":64914,"epoch":"2026-09-20T23:03:19.603584Z","epoch_age_seconds":84464,"freshness":"FRESH","line1":"1 64914U 25157L   26263.96064356  .00012566  00000+0  38243-3 0  9994","line2":"2 64914  53.1562 155.6069 0001235  95.2583 264.8561 15.34397315 66019","mean_motion":15.34397315,"eccentricity":0.0001235,"inclination_deg":53.1562,"raan_deg":155.6069,"arg_perigee_deg":95.2583,"mean_anomaly_deg":264.8561,"bstar":0.00038243,"rev_number":6601,"period_min":93.847922302966,"perigee_km":461.86637584934,"apogee_km":463.55606535982,"semimajor_km":6840.8482206046,"source":"CELESTRAK","updated_at":"2026-09-21T09:00:35.456008Z"}}